TimeCST,TemperatureF,Dew PointF,Humidity,Sea Level PressureIn,VisibilityMPH,Wind Direction,Wind SpeedMPH,Gust SpeedMPH,PrecipitationIn,Events,Conditions,WindDirDegrees,DateUTC
12:16 AM,8.6,3.2,79,30.24,7.0,West,4.6,-,N/A,,Overcast,280,2012-12-25 06:16:00
12:53 AM,8.1,3.0,80,30.31,10.0,WSW,5.8,-,N/A,,Overcast,250,2012-12-25 06:53:00
1:53 AM,8.1,3.9,83,30.33,10.0,WNW,5.8,-,N/A,,Overcast,290,2012-12-25 07:53:00
2:53 AM,7.0,3.0,84,30.35,10.0,WSW,5.8,-,N/A,,Overcast,250,2012-12-25 08:53:00
3:51 AM,6.8,3.2,85,30.30,10.0,West,6.9,-,N/A,,Overcast,260,2012-12-25 09:51:00
3:53 AM,7.0,3.0,84,30.37,10.0,WSW,5.8,-,N/A,,Overcast,250,2012-12-25 09:53:00
4:53 AM,7.0,3.0,84,30.39,10.0,WSW,6.9,-,N/A,,Overcast,240,2012-12-25 10:53:00
5:53 AM,6.1,3.0,87,30.42,10.0,WSW,6.9,-,N/A,,Overcast,250,2012-12-25 11:53:00
6:53 AM,6.1,1.9,83,30.44,10.0,WSW,5.8,-,N/A,,Overcast,240,2012-12-25 12:53:00
7:53 AM,3.9,1.0,88,30.45,10.0,SW,6.9,-,N/A,,Overcast,230,2012-12-25 13:53:00
8:53 AM,3.9,1.0,88,30.47,8.0,SW,6.9,-,N/A,,Overcast,220,2012-12-25 14:53:00
9:53 AM,5.0,1.0,84,30.50,9.0,SSW,6.9,-,N/A,,Overcast,200,2012-12-25 15:53:00
10:53 AM,6.1,1.0,80,30.50,9.0,SSW,6.9,-,N/A,,Overcast,200,2012-12-25 16:53:00
11:53 AM,7.0,1.0,77,30.48,10.0,SW,6.9,-,N/A,,Overcast,220,2012-12-25 17:53:00
12:18 PM,8.6,1.4,73,30.41,10.0,SSW,6.9,-,N/A,,Scattered Clouds,200,2012-12-25 18:18:00
12:53 PM,9.0,1.9,73,30.46,10.0,SSW,6.9,-,N/A,,Clear,200,2012-12-25 18:53:00
1:53 PM,12.0,3.0,67,30.46,10.0,SW,5.8,-,N/A,,Clear,220,2012-12-25 19:53:00
2:53 PM,12.0,3.0,67,30.47,10.0,WSW,5.8,-,N/A,,Clear,250,2012-12-25 20:53:00
3:53 PM,12.0,3.0,67,30.46,10.0,WNW,3.5,-,N/A,,Clear,290,2012-12-25 21:53:00
4:53 PM,6.1,-0.0,76,30.46,10.0,Calm,Calm,-,N/A,,Clear,0,2012-12-25 22:53:00
5:53 PM,-0.0,-4.0,83,30.50,10.0,Calm,Calm,-,N/A,,Clear,0,2012-12-25 23:53:00
6:53 PM,1.9,-2.9,80,30.51,10.0,SSW,4.6,-,N/A,,Clear,200,2012-12-26 00:53:00
7:53 PM,5.0,-0.9,76,30.53,10.0,WSW,5.8,-,N/A,,Clear,240,2012-12-26 01:53:00
8:53 PM,3.9,-2.0,76,30.51,10.0,WSW,4.6,-,N/A,,Clear,250,2012-12-26 02:53:00
9:53 PM,-0.0,-5.1,79,30.50,10.0,SW,3.5,-,N/A,,Clear,220,2012-12-26 03:53:00
10:53 PM,-0.9,-5.1,83,30.49,10.0,South,3.5,-,N/A,,Clear,190,2012-12-26 04:53:00
11:27 PM,-2.2,-5.8,85,30.40,10.0,SSW,4.6,-,N/A,,Mostly Cloudy,210,2012-12-26 05:27:00
11:53 PM,-0.9,-5.1,83,30.48,10.0,South,3.5,-,N/A,,Overcast,190,2012-12-26 05:53:00